Muncie, IN

1:10 PM EDT on June 29, 2017 (GMT -0400)
Delaware County-Johnson

Weather History for KMIE - December, 2012

Change the Weather History Date:

Tuesday, December 4, 2012

  Actual Average Record
Temperature  
Mean Temperature 52 °F 34 °F  
Max Temperature 62 °F 42 °F 67 °F (1982)
Min Temperature 42 °F 27 °F 3 °F (1991)
Degree Days  
Heating Degree Days 13 31  
Month to date heating degree days 35 120  
Since 1 July heating degree days 1291 1255  
Cooling Degree Days 0 0  
Month to date cooling degree days 0 0  
Year to date cooling degree days 1149 956  
Growing Degree Days 2 (Base 50)    
Moisture  
Dew Point 46 °F    
Average Humidity 79    
Maximum Humidity 93    
Minimum Humidity 64    
Precipitation  
Precipitation 0.24 in 0.10 in 0.87 in (1978)
Month to date precipitation 0.31 0.40  
Year to date precipitation 30.88 37.64  
Sea Level Pressure  
Sea Level Pressure 30.06 in    
Wind  
Wind Speed 9 mph (West)    
Max Wind Speed 16 mph    
Max Gust Speed 24 mph    
Visibility 7 miles    
Events Rain    
T = Trace of Precipitation, MM = Missing Value Source: NWS Daily Summary

Daily Weather History Graph

Daily Weather History Graph

Search for Another Location

Airport or City:

Trip Planner

Search our weather history database for the weather conditions in past years. The results will help you decide how hot, cold, wet, or windy it might be!

Date:

Astronomy

Dec. 04, 2012 Rise Set
Actual Time 7:48 AM EST 5:15 PM EST
Civil Twilight 7:18 AM EST 5:45 PM EST
Nautical Twilight 6:44 AM EST 6:19 PM EST
Astronomical Twilight 6:11 AM EST 6:52 PM EST
Moon 11:02 PM EST (12/4) 11:41 AM EST (12/4)
Length of Visible Light 10h 27m
Length of Day
9h 27m
Waning Gibbous, 69% of the Moon is Illuminated
Dec 4
Waning Gibbous
Dec 6
Last Quarter
Dec 13
New
Dec 20
First Quarter
Dec 28
Full

Hourly Weather History & Observations

Time (EST) Temp. Windchill Dew Point Humidity Pressure Visibility Wind Dir Wind Speed Gust Speed Precip Events Conditions
1:53 AM 61.0 °F - 50.0 °F 67% 29.99 in 10.0 mi SSW 11.5 mph 20.7 mph N/A   Mostly Cloudy
2:53 AM 60.1 °F - 50.0 °F 69% 29.99 in 10.0 mi SSW 11.5 mph - N/A   Partly Cloudy
3:53 AM 60.1 °F - 48.9 °F 67% 29.98 in 10.0 mi SSW 13.8 mph 19.6 mph N/A   Clear
4:53 AM 59.0 °F - 50.0 °F 72% 29.98 in 10.0 mi SSW 11.5 mph - N/A   Mostly Cloudy
5:53 AM 60.1 °F - 50.0 °F 69% 29.97 in 10.0 mi SSW 13.8 mph 21.9 mph N/A   Mostly Cloudy
6:19 AM 60.8 °F - 51.8 °F 72% 29.99 in 10.0 mi SSW 11.5 mph 19.6 mph N/A   Overcast
6:53 AM 61.0 °F - 51.1 °F 70% 29.98 in 10.0 mi SSW 15.0 mph 21.9 mph N/A   Overcast
7:53 AM 61.0 °F - 51.1 °F 70% 29.99 in 10.0 mi SSW 10.4 mph - N/A   Overcast
8:53 AM 60.1 °F - 52.0 °F 75% 30.00 in 10.0 mi SSW 8.1 mph 17.3 mph N/A   Overcast
9:53 AM 57.9 °F - 54.0 °F 87% 30.01 in 1.2 mi WSW 6.9 mph - 0.05 in Rain Heavy Rain
10:01 AM 57.2 °F - 53.6 °F 88% 30.03 in 3.0 mi WSW 5.8 mph - 0.00 in Rain Light Rain
10:06 AM 57.2 °F - 53.6 °F 88% 30.03 in 2.5 mi SW 6.9 mph - 0.00 in   Overcast
10:13 AM 57.2 °F - 53.6 °F 88% 30.03 in 1.2 mi SSW 8.1 mph - 0.01 in Rain Light Rain
10:31 AM 55.4 °F - 53.6 °F 94% 30.04 in 2.5 mi NW 13.8 mph - 0.02 in Rain Light Rain
10:39 AM 53.6 °F - 51.8 °F 94% 30.05 in 3.0 mi NNW 10.4 mph - 0.02 in   Overcast
10:53 AM 52.0 °F - 48.9 °F 89% 30.04 in 5.0 mi NNW 11.5 mph - 0.02 in   Overcast
11:53 AM 50.0 °F - 46.9 °F 89% 30.05 in 5.0 mi NNW 11.5 mph - 0.01 in Rain Light Rain
12:16 PM 48.2 °F - 46.4 °F 93% 30.06 in 4.0 mi NNW 12.7 mph - 0.01 in Rain Light Rain
12:53 PM 48.0 °F - 45.0 °F 89% 30.05 in 2.5 mi North 9.2 mph - 0.06 in Rain Rain
1:00 PM 48.2 °F - 44.6 °F 87% 30.06 in 5.0 mi NNW 10.4 mph - 0.00 in Rain Light Rain
1:09 PM 48.2 °F - 44.6 °F 87% 30.06 in 2.5 mi North 9.2 mph - 0.02 in Rain Rain
1:33 PM 48.2 °F - 44.6 °F 87% 30.06 in 4.0 mi North 10.4 mph - 0.06 in Rain Light Rain
1:51 PM 46.4 °F 41.9 °F 44.6 °F 93% 30.08 in 4.0 mi NW 9.2 mph - 0.08 in Rain Light Rain
1:53 PM 46.9 °F - 45.0 °F 93% 30.07 in 4.0 mi NW 9.2 mph - 0.08 in Rain Light Rain
2:28 PM 46.4 °F 41.9 °F 41.0 °F 81% 30.08 in 10.0 mi North 9.2 mph - 0.02 in Rain Light Rain
2:53 PM 46.9 °F - 39.9 °F 77% 30.06 in 10.0 mi North 5.8 mph - 0.02 in   Overcast
3:53 PM 46.9 °F - 39.9 °F 77% 30.09 in 10.0 mi NNW 8.1 mph - N/A   Overcast
4:53 PM 46.9 °F - 42.1 °F 83% 30.10 in 10.0 mi NW 5.8 mph - N/A   Overcast
5:53 PM 46.9 °F - 42.1 °F 83% 30.14 in 10.0 mi West 5.8 mph - N/A   Overcast
6:53 PM 45.0 °F 41.8 °F 41.0 °F 86% 30.15 in 10.0 mi WSW 5.8 mph - N/A   Clear
7:53 PM 45.0 °F 41.2 °F 41.0 °F 86% 30.16 in 10.0 mi WSW 6.9 mph - N/A   Clear
8:53 PM 44.1 °F 40.1 °F 39.9 °F 85% 30.17 in 10.0 mi WSW 6.9 mph - N/A   Clear
9:53 PM 43.0 °F 38.8 °F 39.0 °F 86% 30.19 in 10.0 mi West 6.9 mph - N/A   Clear
10:53 PM 43.0 °F 38.8 °F 37.9 °F 82% 30.20 in 10.0 mi WSW 6.9 mph - N/A   Clear
11:53 PM 42.1 °F 37.1 °F 36.0 °F 79% 30.20 in 10.0 mi West 8.1 mph - N/A   Clear